Denver Centennial, CO

11:30 AM MDT on August 18, 2017 (GMT -0600)
Centennial

Weather History for KAPA - September, 2013

Change the Weather History Date:

Friday, September 6, 2013

  Actual Average Record
Temperature  
Mean Temperature 79 °F -  
Max Temperature 95 °F 78 °F 95 °F (2013)
Min Temperature 63 °F 50 °F 43 °F (2004)
Cooling Degree Days 14    
Month to date cooling degree days 70  
Growing Degree Days 28 (Base 50)    
Moisture  
Dew Point 43 °F    
Average Humidity 35    
Maximum Humidity 56    
Minimum Humidity 13    
Precipitation  
Precipitation 0.00 in - - ()
Month to date precipitation 0.02  
Year to date precipitation 9.83  
Sea Level Pressure  
Sea Level Pressure 29.98 in    
Wind  
Wind Speed 6 mph (SSW)    
Max Wind Speed 17 mph    
Max Gust Speed 22 mph    
Visibility 10 miles    
Events      
Averages and records for this station are not official NWS values.
T = Trace of Precipitation, MM = Missing Value Source: NWS Daily Summary

Daily Weather History Graph

Daily Weather History Graph

Search for Another Location

Airport or City:

Trip Planner

Search our weather history database for the weather conditions in past years. The results will help you decide how hot, cold, wet, or windy it might be!

Date:

Astronomy

Sep. 06, 2013 Rise Set
Actual Time 6:32 AM MDT 7:22 PM MDT
Civil Twilight 6:05 AM MDT 7:49 PM MDT
Nautical Twilight 5:32 AM MDT 8:21 PM MDT
Astronomical Twilight 4:59 AM MDT 8:55 PM MDT
Moon 7:47 AM MDT (9/6) 7:48 PM MDT (9/6)
Length of Visible Light 13h 44m
Length of Day
12h 49m
New Moon, 2% of the Moon is Illuminated
Sep 6
New Moon
Sep 12
First Quarter
Sep 19
Full
Sep 26
Last Quarter
Oct 4
New

Hourly Weather History & Observations

Time (MDT) Temp. Dew Point Humidity Pressure Visibility Wind Dir Wind Speed Gust Speed Precip Events Conditions
12:53 AM 66.9 °F 44.1 °F 44% 29.99 in 10.0 mi South 6.9 mph - N/A   Scattered Clouds
1:53 AM 68.0 °F 44.1 °F 42% 29.99 in 10.0 mi SW 4.6 mph - N/A   Scattered Clouds
2:53 AM 64.0 °F 45.0 °F 50% 29.99 in 10.0 mi WSW 3.5 mph - N/A   Scattered Clouds
3:53 AM 64.9 °F 43.0 °F 45% 29.99 in 10.0 mi SSW 6.9 mph - N/A   Scattered Clouds
4:53 AM 68.0 °F 41.0 °F 37% 29.99 in 10.0 mi SSW 6.9 mph - N/A   Scattered Clouds
5:53 AM 64.9 °F 41.0 °F 42% 30.00 in 10.0 mi SSE 3.5 mph - N/A   Scattered Clouds
6:53 AM 64.0 °F 42.1 °F 45% 30.01 in 10.0 mi South 6.9 mph - N/A   Scattered Clouds
7:53 AM 72.0 °F 44.1 °F 37% 30.00 in 10.0 mi Calm Calm - N/A   Scattered Clouds
8:53 AM 78.1 °F 43.0 °F 29% 30.01 in 10.0 mi West 5.8 mph - N/A   Scattered Clouds
9:53 AM 82.9 °F 42.1 °F 24% 30.00 in 10.0 mi West 6.9 mph - N/A   Scattered Clouds
10:53 AM 86.0 °F 43.0 °F 22% 30.00 in 10.0 mi North 6.9 mph - N/A   Scattered Clouds
11:16 AM 87.8 °F 41.0 °F 19% 30.26 in 10.0 mi North 3.5 mph - N/A   Scattered Clouds
11:53 AM 87.1 °F 42.1 °F 21% 29.99 in 10.0 mi North 6.9 mph - N/A   Scattered Clouds
12:53 PM 89.1 °F 42.1 °F 19% 29.98 in 10.0 mi Variable 4.6 mph - N/A   Scattered Clouds
1:53 PM 91.9 °F 39.0 °F 16% 29.94 in 10.0 mi Calm Calm - N/A   Scattered Clouds
2:53 PM 91.9 °F 37.9 °F 15% 29.92 in 10.0 mi ENE 8.1 mph - N/A   Scattered Clouds
3:53 PM 93.9 °F 36.0 °F 13% 29.89 in 10.0 mi East 8.1 mph - N/A   Scattered Clouds
4:53 PM 93.0 °F 36.0 °F 13% 29.87 in 10.0 mi SSE 10.4 mph 17.3 mph N/A   Scattered Clouds
5:53 PM 88.0 °F 36.0 °F 16% 29.90 in 10.0 mi SSE 8.1 mph - N/A   Mostly Cloudy
6:53 PM 82.9 °F 44.1 °F 25% 29.94 in 10.0 mi Calm Calm - N/A   Mostly Cloudy
7:53 PM 79.0 °F 46.9 °F 32% 29.96 in 10.0 mi NE 6.9 mph - N/A   Scattered Clouds
8:53 PM 75.9 °F 48.0 °F 37% 29.98 in 10.0 mi North 8.1 mph - N/A   Partly Cloudy
9:53 PM 73.0 °F 48.0 °F 41% 29.99 in 10.0 mi North 8.1 mph - N/A   Scattered Clouds
10:53 PM 71.1 °F 48.0 °F 44% 29.99 in 10.0 mi Calm Calm - N/A   Partly Cloudy
11:53 PM 66.9 °F 50.0 °F 54% 30.00 in 10.0 mi South 4.6 mph - N/A   Partly Cloudy